FENGYUN 1C DEB

Satellite information

Favourite Embed

Satellite Type and Status

DEBRISIN ORBIT

Key statistics

Satellite FENGYUN 1C DEB at a glance.

Uptime

9717

Days in orbit

Revolutions

≈ 12.8

Per day

Orbit

SSO

Sun Synchronous Orbit

Inclination

99.9

Latest

Satellite identification and parameters

Extended collection of information and parameters for FENGYUN 1C DEB.

Object identification

Identified? True

Debris? True

Object name: FENGYUN 1C DEB

International designator: 1999-025EJF

Object number (NORAD): 37461

Object ID (CCSDS): 37461

Country: PEOPLES REPUBLIC OF CHINA (PRC)

Current information (Y/N): Y

RCS size: SMALL

Orbital parameters

Period: 112.582 minutes

Inclination: 99.8664 deg

SMA: 7723.345 km

Apoapsis: 1860.677 km

Periapsis: 829.744 km

RAAN: 221.8984 deg

Eccentricy: 0.0667413

Argument of periapsis: 359.7811 deg

Mean anomaly: 0.291 deg

Mean motion: 12.7907076 rev/day

Mean motion (dot): 0.00003048 rev/day2

B* drag term: 0.0053613 1/REarth

Two-line elements (TLE)

Creation date: Nov. 28, 2025, 7:06 a.m.

Reference frame: TEME

Reference center: EARTH

Epoch: Nov. 27, 2025, 10:25 p.m. UTC

TLE line 0: 0 FENGYUN 1C DEB

TLE line 1: 1 37461U 99025EJF 25331.93467734 .00003048 00000-0 53613-2 0 9998

TLE line 2: 2 37461 99.8664 221.8984 0667413 359.7811 0.2910 12.79070760518454

Live tracking on map

Real-time ground track for satellite FENGYUN 1C DEB.

In-orbit conjunctions

A list of the most updated potential collisions computed for object FENGYUN 1C DEB.

Target Orbit TCA Probability of collision Miss distance Type
M-4S R/B LEO 2024-07-12 18:18:16 0.0001002307 639.0 (m) ROCKET BODY
GEOS 3 SSO 2024-06-06 21:15:39 0.0001477231 656.0 (m) PAYLOAD

Associated space launch

Chinese polar orbiting meteorological satellite

FENGYUN 1C DEB was lifted into orbit during the mission ‘Long March 4B | Feng Yun 1C’, on board a Long March 4B space rocket.

The launch took place on May 10, 1999, 1:33 a.m. from Launch Complex 7.

For more information about the launch, click the button.

Launch to space Long March 4B | Feng Yun 1C
Long March 4B | Feng Yun 1C

Agency: N/A

Status: Launch Successful

Launch date: May 10, 1999, 1:33 a.m. UTC

Rocket: Long March 4B

Launch pad: Launch Complex 7

Location: Taiyuan Satellite Launch Center, People's Republic of China

...

Latest news about this satellite

There are no fresh news available about this satellite. Check back as we update our databases every day.


Newsletter sign-up

Weekly statistics, charts and insights to help you stay on top of the space industry.